| time (UTC) | temp F | wind direction | speed knots | gust knots | rain 1hr in | rain 24hr in | rain mn in | humidity % | barometer mb |
| 20260901060111 | 52 | 198 | 0.0 | 0.9 | 0.00 | 0.18 | 0.00 | 83 | 1027.2 |
| 20260901050606 | 53 | 198 | 0.0 | 0.0 | 0.00 | 0.18 | 0.18 | 82 | 1027.1 |
| 20260901050111 | 53 | 198 | 0.0 | 0.0 | 0.00 | 0.18 | 0.18 | 82 | 1027.1 |
| 20260901040606 | 53 | 199 | 0.0 | 0.0 | 0.00 | 0.18 | 0.18 | 81 | 1026.1 |
| 20260901030606 | 54 | 222 | 0.0 | 0.0 | 0.00 | 0.18 | 0.18 | 80 | 1026.1 |
| 20260901030112 | 54 | 222 | 0.0 | 0.0 | 0.00 | 0.18 | 0.18 | 79 | 1026.0 |
| 20260901020607 | 56 | 205 | 0.0 | 2.6 | 0.00 | 0.18 | 0.18 | 76 | 1025.6 |
| 20260901020112 | 56 | 211 | 0.0 | 2.6 | 0.00 | 0.18 | 0.18 | 75 | 1025.6 |
| 20260901010607 | 59 | 210 | 0.0 | 5.2 | 0.00 | 0.18 | 0.18 | 73 | 1025.2 |
| 20260901010112 | 58 | 178 | 0.9 | 5.2 | 0.00 | 0.18 | 0.18 | 73 | 1025.3 |
| 20260901000607 | 60 | 201 | 0.9 | 5.2 | 0.00 | 0.18 | 0.18 | 69 | 1026.0 |
| 20260831230606 | 61 | 168 | 0.0 | 4.3 | 0.00 | 0.18 | 0.18 | 68 | 1025.9 |
| 20260831230112 | 61 | 159 | 0.0 | 4.3 | 0.00 | 0.18 | 0.18 | 69 | 1025.9 |
| 20260831220112 | 60 | 119 | 0.0 | 1.7 | 0.00 | 0.18 | 0.18 | 75 | 1025.7 |
| 20260831200112 | 56 | 7 | 0.0 | 1.7 | 0.00 | 0.50 | 0.18 | 83 | 1027.3 |
| 20260831190606 | 54 | 153 | 0.0 | 0.0 | 0.06 | 0.66 | 0.18 | 84 | 1028.1 |
| 20260831190112 | 53 | 153 | 0.0 | 0.9 | 0.07 | 0.66 | 0.18 | 83 | 1028.4 |
| 20260831180606 | 52 | 192 | 0.0 | 4.3 | 0.10 | 0.60 | 0.12 | 82 | 1028.7 |
| 20260831170606 | 53 | 193 | 0.9 | 5.2 | 0.02 | 0.50 | 0.02 | 81 | 1028.5 |
| 20260831170111 | 53 | 173 | 0.9 | 5.2 | 0.02 | 0.50 | 0.02 | 80 | 1028.5 |
| 20260831160606 | 54 | 155 | 2.6 | 12.2 | 0.00 | 0.48 | 0.00 | 76 | 1026.7 |
| 20260831160111 | 54 | 172 | 4.3 | 11.3 | 0.00 | 0.48 | 0.00 | 75 | 1026.6 |
| 20260831150606 | 56 | 170 | 2.6 | 15.6 | 0.00 | 0.48 | 0.00 | 67 | 1025.3 |
| 20260831150112 | 56 | 151 | 6.1 | 15.6 | 0.00 | 0.48 | 0.00 | 66 | 1024.9 |
| 20260831140605 | 56 | 135 | 0.9 | 5.2 | 0.00 | 0.48 | 0.00 | 70 | 1024.1 |
| 20260831140112 | 56 | 138 | 0.9 | 4.3 | 0.00 | 0.48 | 0.00 | 70 | 1024.2 |
| 20260831130606 | 54 | 214 | 0.0 | 4.3 | 0.00 | 0.48 | 0.00 | 73 | 1023.9 |
| 20260831120111 | 54 | 128 | 0.0 | 0.0 | 0.00 | 0.48 | 0.00 | 73 | 1023.4 |
| 20260831110605 | 55 | 176 | 0.0 | 4.3 | 0.00 | 0.48 | 0.00 | 70 | 1023.1 |
| 20260831110111 | 55 | 181 | 0.0 | 4.3 | 0.00 | 0.48 | 0.00 | 70 | 1023.1 |
| 20260831100111 | 56 | 142 | 0.9 | 6.1 | 0.00 | 0.48 | 0.00 | 70 | 1023.2 |
| 20260831090605 | 55 | 155 | 0.9 | 7.8 | 0.00 | 0.48 | 0.00 | 74 | 1023.0 |
| 20260831090111 | 55 | 192 | 1.7 | 7.8 | 0.00 | 0.48 | 0.00 | 74 | 1023.1 |
| 20260831080605 | 55 | 169 | 0.9 | 6.1 | 0.00 | 0.48 | 0.00 | 72 | 1023.5 |
| 20260831080111 | 56 | 154 | 0.9 | 6.1 | 0.00 | 0.48 | 0.00 | 71 | 1023.4 |
| 20260831070605 | 55 | 80 | 0.0 | 0.9 | 0.00 | 0.48 | 0.00 | 68 | 1023.8 |
| 20260831070110 | 55 | 58 | 0.0 | 0.0 | 0.00 | 0.48 | 0.00 | 69 | 1023.8 |